STARLINK-37618, 69228

Orbit data source: Space-Track

STARLINK-37618, 69228 is a payload satellite owned by SpaceX/Seattle (US) in SSO that was launched on Tue, 26 May 2026 UTC via an FALCON 9 launch vehicle from the Air Force Western Test Range (AFWTR). Payload-class satellites include a variety of spacecraft equipped with specific instruments for various scientific and technological missions. These include communications satellites like Starlink; space stations such as the ISS; scientific satellites like the Hubble; Earth observation satellites from companies like Planet Labs, Umbra, and HawkEye 360; GPS; miniature CubeSats for education and research; and military/defense satellites.

Loading next visibility...
Identifier
69228, 2026-115T
Orbit
SSO
Country
Flag of USUS
Related business
Manufacturer
SpaceX/Seattle
Mission
Operational spacecraft
Bus & Motor
STARLINK V2MO, Unknown motor
Mass
575 kg wet, ~530 kg dry
Launch date (UTC)
2026-05-26 (4 weeks ago)
Launch vehicle
FALCON 9
Launch site
Air Force Western Test Range (AFWTR)
Object type
Payload
Rocket body
Debris
Shape & HBR
Unknown
Radar Cross Section
Large (>1 m²)

Expand to show TLE details & history
Last TLE update: 20 hours ago

TLE from 20 hours ago
0 STARLINK-37618
1 69228U 26115T   26171.02993861  .00042080  00000-0  77025-3 0  9995
2 69228  97.2847 188.3483 0002606  93.8737 266.2812 15.49223745  5118
Epoch: 2026-06-20T00:43Z
TLE epoch observation values (Epoch: 2026-06-20T00:43:06.695Z)
Latitude
-0.00007°
Longitude
-90.68001°
Altitude
422.244 km
Speed
7.658 km/s
True Right ascension
12h 33m 23s
True Declination
0° 00' 00"
Sunlit
Object was in daylight at epoch
Visualization orbit readout
Latitude
Unknown
Longitude
Unknown
Altitude
Unknown
Speed
Unknown
Apparent Right ascension
Unknown
Apparent Declination
Unknown
Sunlit
N/A
Visualization observer readout
Local Sidereal Time
07:14:13
Azimuth
Unknown
Elevation
Unknown
Doppler factor
Unknown
Orbital elements
Apogee altitude
417.688 km
Perigee altitude
414.147 km
Semi-major axis
6,794.054 km
Eccentricity
0.00026
Inclination
97.2847°
RAAN
188.3483°
Arg. of periapsis
93.8737°
True anomaly
266.2514°
Mean anomaly
266.2812°
Eccentric anomaly
266.2663°
Mean motion
3.8757 °/min
Orbital period
92.89 mins
BSTAR
0.00077025
Loading maneuver chart data...
Computing Atmospheric mass density...
Loading historical data...
Loading historical data...
Loading historical data...
Loading historical data...
Loading historical data...
Loading historical data...
Loading historical data...

Documentation

Showing up to 5 results
|